GW4332 Weather Reports


time (UTC)temp
F
wind
direction
speed
knots
gust
knots
rain 1hr
in
rain 24hr
in
rain mn
in
humidity
%
barometer
mb
20260905040030 63 239 14.8 21.7 0.00 0.00 0.00 79 1015.4
20260905035030 63 234 17.4 24.3 0.00 0.00 0.00 78 1015.3
20260905034030 63 245 17.4 23.5 0.00 0.00 0.00 78 1015.3
20260905033030 63 251 14.8 25.2 0.00 0.00 0.00 77 1015.4
20260905032030 63 246 18.2 23.5 0.00 0.00 0.00 78 1015.3
20260905031030 64 257 19.1 23.5 0.00 0.00 0.00 78 1015.2
20260905030030 63 254 18.2 25.2 0.00 0.00 0.00 77 1015.1
20260905025029 64 241 13.9 22.6 0.00 0.00 0.00 77 1015.1
20260905024030 64 259 17.4 22.6 0.00 0.00 0.00 76 1015.0
20260905023030 64 246 18.2 24.3 0.00 0.00 0.00 77 1015.0
20260905022030 64 238 16.5 23.5 0.00 0.00 0.00 77 1014.9
20260905021030 64 245 19.1 26.1 0.00 0.00 0.00 76 1014.8
20260905020030 64 257 20.0 26.1 0.00 0.00 0.00 76 1014.8
20260905015030 64 255 19.1 25.2 0.00 0.00 0.00 77 1014.7
20260905014030 64 256 20.0 24.3 0.00 0.00 0.00 77 1014.6
20260905013029 64 253 20.0 26.1 0.00 0.00 0.00 76 1014.6
20260905012030 64 259 19.1 25.2 0.00 0.00 0.00 76 1014.5
20260905011030 64 252 20.9 26.1 0.00 0.00 0.00 75 1014.6
20260905010029 64 256 20.9 27.8 0.00 0.00 0.00 76 1014.5
20260905005030 64 244 17.4 23.5 0.00 0.00 0.00 77 1014.5
20260905004030 64 256 19.1 24.3 0.00 0.00 0.00 77 1014.4
20260905003030 64 242 20.0 26.9 0.00 0.00 0.00 76 1014.4
20260905002030 64 257 21.7 25.2 0.00 0.00 0.00 76 1014.5
20260905001030 64 255 20.9 28.7 0.00 0.00 0.00 75 1014.5
20260905000030 65 250 22.6 27.8 0.00 0.00 0.00 75 1014.4
20260904235030 65 253 23.5 28.7 0.00 0.00 0.00 75 1014.3
20260904234030 65 263 22.6 27.8 0.00 0.00 0.00 76 1014.2
20260904233030 65 267 22.6 28.7 0.00 0.00 0.00 75 1014.4
20260904232029 65 265 22.6 27.8 0.00 0.00 0.00 76 1014.3
20260904231030 65 267 21.7 25.2 0.00 0.00 0.00 77 1014.2
20260904230030 65 268 22.6 26.9 0.00 0.00 0.00 75 1014.1
20260904225030 65 275 22.6 28.7 0.00 0.00 0.00 75 1014.1
20260904224030 65 263 22.6 26.9 0.00 0.00 0.00 76 1014.2
20260904223030 65 252 23.5 28.7 0.00 0.00 0.00 75 1014.0
20260904222030 65 256 22.6 28.7 0.00 0.00 0.00 76 1013.9
20260904221030 65 259 25.2 30.4 0.00 0.00 0.00 75 1013.8
20260904220030 65 254 24.3 32.2 0.00 0.00 0.02 75 1013.8
20260904215030 65 257 24.3 30.4 0.00 0.00 0.02 76 1013.6
20260904214030 65 253 24.3 32.2 0.00 0.00 0.02 74 1013.5
20260904213030 65 253 25.2 31.3 0.00 0.00 0.02 75 1013.5
20260904212029 65 263 25.2 32.2 0.00 0.00 0.02 76 1013.3
20260904211030 65 258 23.5 31.3 0.00 0.00 0.02 74 1013.3
20260904210030 65 254 24.3 31.3 0.00 0.00 0.02 75 1013.3
20260904205030 65 259 23.5 30.4 0.00 0.00 0.02 74 1013.2
20260904204030 65 239 19.1 26.1 0.00 0.00 0.02 77 1013.4
20260904203030 65 254 20.9 29.5 0.00 0.00 0.02 75 1013.3
20260904202029 65 253 20.9 27.8 0.00 0.00 0.02 77 1013.3
20260904201029 65 241 20.9 26.1 0.00 0.00 0.02 76 1013.3
20260904200030 65 255 22.6 28.7 0.00 0.00 0.02 75 1013.2
20260904195030 65 249 21.7 28.7 0.00 0.00 0.02 76 1013.2
20260904194030 65 253 22.6 28.7 0.00 0.00 0.02 75 1013.0
20260904193030 65 237 22.6 30.4 0.00 0.00 0.02 77 1012.9
20260904192030 65 244 22.6 29.5 0.00 0.00 0.02 76 1012.9
20260904191030 65 241 20.9 29.5 0.00 0.00 0.02 76 1012.8
20260904190030 65 247 20.9 26.9 0.00 0.00 0.02 75 1012.7
20260904185030 65 265 20.0 29.5 0.00 0.00 0.02 74 1012.6
20260904184030 65 259 25.2 32.2 0.00 0.00 0.02 72 1012.4
20260904183030 65 262 24.3 32.2 0.00 0.00 0.02 75 1012.3
20260904182030 65 256 24.3 32.2 0.00 0.00 0.02 76 1012.2
20260904181030 65 262 25.2 31.3 0.00 0.00 0.02 77 1012.1
20260904180030 65 263 26.1 31.3 0.00 0.00 0.02 77 1011.9
20260904175030 65 270 25.2 31.3 0.00 0.00 0.02 77 1011.7
20260904174030 65 285 25.2 30.4 0.00 0.00 0.02 76 1011.5
20260904173030 65 284 26.9 33.0 0.00 0.00 0.02 74 1011.5
20260904172030 65 272 26.1 31.3 0.00 0.00 0.02 74 1011.3
20260904171030 65 274 28.7 35.6 0.00 0.00 0.02 78 1011.1
20260904170030 65 267 28.7 33.9 0.00 0.00 0.02 78 1011.1
20260904165030 65 268 26.1 35.6 0.00 0.00 0.02 79 1011.1
20260904164030 65 268 27.8 33.0 0.00 0.00 0.02 79 1011.0
20260904163029 64 282 26.9 34.8 0.00 0.00 0.02 83 1010.9
20260904162030 66 255 23.5 31.3 0.00 0.00 0.02 82 1010.9
20260904161030 66 251 22.6 28.7 0.00 0.00 0.02 82 1010.8
20260904160029 66 249 24.3 31.3 0.00 0.00 0.02 82 1010.6
20260904155030 66 256 24.3 31.3 0.00 0.00 0.02 82 1010.7
20260904154029 66 255 27.8 35.6 0.00 0.00 0.02 82 1010.3
20260904153029 66 253 29.5 36.5 0.00 0.00 0.02 81 1010.2
20260904152030 66 255 27.8 37.4 0.00 0.00 0.02 82 1010.3
20260904151030 66 263 26.1 34.8 0.00 0.00 0.02 83 1010.3
20260904150030 66 258 24.3 33.9 0.00 0.00 0.02 84 1010.2
20260904145030 66 251 28.7 37.4 0.00 0.00 0.02 84 1010.0
20260904144029 66 257 26.1 33.9 0.00 0.00 0.02 85 1009.9
20260904143029 66 264 26.9 33.9 0.00 0.00 0.02 85 1009.7
20260904142030 66 242 23.5 32.2 0.00 0.00 0.02 88 1009.8
20260904141030 65 241 19.1 26.1 0.00 0.00 0.02 91 1009.7
20260904140030 65 236 18.2 29.5 0.00 0.00 0.02 91 1009.5
20260904135030 65 236 22.6 27.8 0.00 0.00 0.02 92 1009.5
20260904134030 64 231 20.0 28.7 0.00 0.00 0.02 92 1009.2
20260904133030 64 237 22.6 28.7 0.00 0.00 0.02 92 1009.2
20260904132030 64 224 20.9 28.7 0.00 0.00 0.02 93 1009.2
20260904131030 64 234 20.9 27.8 0.00 0.00 0.02 92 1009.4
20260904130030 63 245 20.0 27.8 0.00 0.00 0.02 92 1009.1
20260904125030 63 237 22.6 29.5 0.00 0.00 0.02 93 1009.0
20260904124030 63 249 22.6 32.2 0.00 0.00 0.02 93 1008.8
20260904123030 63 243 20.9 31.3 0.00 0.00 0.02 93 1008.8
20260904122030 63 246 20.9 26.1 0.00 0.00 0.02 94 1008.9
20260904121030 63 251 24.3 33.0 0.00 0.00 0.02 93 1008.6
20260904120029 63 241 17.4 25.2 0.00 0.00 0.02 94 1008.8
20260904115030 64 251 18.2 27.8 0.00 0.00 0.01 94 1008.9
20260904114030 64 250 20.0 26.9 0.00 0.00 0.01 93 1008.5
20260904113030 64 233 18.2 25.2 0.00 0.00 0.00 93 1008.6
20260904112030 64 229 12.2 20.0 0.00 0.00 0.00 92 1008.6
20260904111030 63 219 11.3 16.5 0.00 0.00 0.00 92 1008.5
20260904110030 63 221 13.0 17.4 0.00 0.00 0.00 91 1008.6
20260904105030 64 230 14.8 20.9 0.00 0.00 0.00 90 1008.7
20260904104030 64 249 20.9 26.1 0.00 0.00 0.00 89 1008.8
20260904103029 65 260 26.9 33.0 0.00 0.00 0.00 86 1008.8
20260904102030 66 246 21.7 33.0 0.00 0.00 0.00 83 1008.6
20260904101030 67 239 19.1 26.1 0.00 0.00 0.00 84 1008.5
20260904100030 67 230 19.1 25.2 0.00 0.00 0.00 84 1008.4
20260904095030 67 247 20.0 27.8 0.00 0.00 0.00 84 1008.3
20260904094030 68 260 29.5 36.5 0.00 0.00 0.00 83 1007.8
20260904093031 69 251 27.8 36.5 0.00 0.00 0.00 85 1007.3
20260904092029 70 224 21.7 36.5 0.00 0.00 0.00 83 1007.5
20260904091030 70 229 21.7 33.9 0.00 0.00 0.00 82 1007.5
20260904090030 70 231 22.6 37.4 0.00 0.00 0.00 82 1007.5
20260904085030 70 216 20.9 32.2 0.00 0.00 0.00 82 1007.5
20260904084030 70 216 18.2 33.0 0.00 0.00 0.00 82 1007.6
20260904083030 70 224 19.1 30.4 0.00 0.00 0.00 83 1007.4
20260904082030 70 228 20.0 33.9 0.00 0.00 0.00 84 1007.6
20260904081030 70 219 19.1 33.0 0.00 0.00 0.00 84 1007.5
20260904080030 70 214 18.2 29.5 0.00 0.00 0.00 84 1007.6
20260904075029 70 211 19.1 33.0 0.00 0.00 0.00 84 1007.7
20260904074030 70 217 15.6 25.2 0.00 0.00 0.00 85 1007.9
20260904073030 69 225 19.1 31.3 0.00 0.00 0.00 85 1008.0
20260904072030 69 215 17.4 30.4 0.00 0.00 0.00 85 1008.1
20260904071030 69 209 14.8 26.9 0.00 0.00 0.00 85 1008.2
20260904070030 69 216 15.6 26.9 0.00 0.00 0.00 85 1008.4
20260904065030 69 212 14.8 24.3 0.00 0.00 0.00 86 1008.5
20260904064030 69 202 13.0 21.7 0.00 0.00 0.00 86 1008.5
20260904063030 69 223 13.9 27.8 0.00 0.00 0.00 86 1008.6
20260904062030 68 218 14.8 28.7 0.00 0.00 0.00 86 1008.7
20260904061030 68 210 14.8 26.1 0.00 0.00 0.00 87 1008.7
20260904060030 68 208 13.0 24.3 0.00 0.00 0.00 87 1009.0
20260904055030 68 217 13.0 23.5 0.00 0.00 0.00 87 1008.9
20260904054029 68 207 13.0 26.1 0.00 0.00 0.00 87 1009.0
20260904053033 68 212 14.8 26.1 0.00 0.00 0.00 87 1009.1
20260904052030 68 206 12.2 20.9 0.00 0.00 0.00 88 1009.4
20260904051030 68 200 10.4 18.2 0.00 0.00 0.00 88 1009.4
20260904050030 68 209 12.2 21.7 0.00 0.00 0.00 88 1009.5
20260904045030 68 208 11.3 20.9 0.00 0.00 0.00 89 1009.8
20260904044030 68 205 11.3 20.9 0.00 0.00 0.00 89 1009.9
20260904043030 68 206 8.7 18.2 0.00 0.00 0.00 89 1010.1
20260904042030 68 209 8.7 16.5 0.00 0.00 0.00 89 1010.1
20260904041029 68 209 9.6 16.5 0.00 0.00 0.00 89 1010.3